TimeMST,TemperatureF,Dew PointF,Humidity,Sea Level PressureIn,VisibilityMPH,Wind Direction,Wind SpeedMPH,Gust SpeedMPH,PrecipitationIn,Events,Conditions,WindDirDegrees,DateUTC
12:15 AM,62.6,55.4,77,29.92,10.0,North,-9999.0,-,N/A,,Clear,0,2012-11-26 07:15:00
12:35 AM,62.6,55.4,77,29.92,10.0,North,-9999.0,-,N/A,,Scattered Clouds,0,2012-11-26 07:35:00
12:55 AM,62.6,55.4,77,29.91,10.0,North,-9999.0,-,N/A,,Mostly Cloudy,0,2012-11-26 07:55:00
1:15 AM,60.8,55.4,82,29.91,10.0,North,-9999.0,-,N/A,,Scattered Clouds,0,2012-11-26 08:15:00
1:35 AM,60.8,55.4,82,29.91,10.0,North,-9999.0,-,N/A,,Clear,0,2012-11-26 08:35:00
1:55 AM,60.8,55.4,82,29.91,10.0,North,-9999.0,-,N/A,,Mostly Cloudy,0,2012-11-26 08:55:00
2:15 AM,62.6,55.4,77,29.91,10.0,North,-9999.0,-,N/A,,Overcast,0,2012-11-26 09:15:00
2:35 AM,62.6,57.2,82,29.92,10.0,North,-9999.0,-,N/A,,Overcast,0,2012-11-26 09:35:00
2:55 AM,62.6,57.2,82,29.92,10.0,North,-9999.0,-,N/A,,Overcast,0,2012-11-26 09:55:00
3:15 AM,60.8,55.4,82,29.92,10.0,North,-9999.0,-,N/A,,Scattered Clouds,0,2012-11-26 10:15:00
3:35 AM,60.8,55.4,82,29.92,10.0,North,-9999.0,-,N/A,,Scattered Clouds,0,2012-11-26 10:35:00
3:55 AM,59.0,59.0,100,29.91,10.0,North,-9999.0,-,N/A,,Scattered Clouds,0,2012-11-26 10:55:00
4:15 AM,57.2,57.2,100,29.92,10.0,North,-9999.0,-,N/A,,Scattered Clouds,0,2012-11-26 11:15:00
4:35 AM,59.0,59.0,100,29.91,10.0,North,-9999.0,-,N/A,,Clear,0,2012-11-26 11:35:00
4:55 AM,59.0,59.0,100,29.92,10.0,North,-9999.0,-,N/A,,Clear,0,2012-11-26 11:55:00
5:15 AM,59.0,59.0,100,29.93,10.0,North,-9999.0,-,N/A,,Scattered Clouds,0,2012-11-26 12:15:00
5:35 AM,55.4,55.4,100,29.94,10.0,North,-9999.0,-,N/A,,Mostly Cloudy,0,2012-11-26 12:35:00
5:55 AM,57.2,57.2,100,29.95,10.0,North,-9999.0,-,N/A,,Mostly Cloudy,0,2012-11-26 12:55:00
6:15 AM,55.4,55.4,100,29.95,5.0,North,-9999.0,-,N/A,,Scattered Clouds,0,2012-11-26 13:15:00
6:35 AM,53.6,53.6,100,29.96,5.0,North,-9999.0,-,N/A,,Mostly Cloudy,0,2012-11-26 13:35:00
6:55 AM,55.4,55.4,100,29.97,7.0,North,-9999.0,-,N/A,,Scattered Clouds,0,2012-11-26 13:55:00
7:15 AM,59.0,59.0,100,29.97,10.0,North,-9999.0,-,N/A,,Clear,0,2012-11-26 14:15:00
7:35 AM,62.6,59.0,88,29.97,10.0,North,-9999.0,-,N/A,,Clear,0,2012-11-26 14:35:00
7:55 AM,64.4,59.0,83,29.97,10.0,North,-9999.0,-,N/A,,Clear,0,2012-11-26 14:55:00
8:15 AM,66.2,59.0,78,29.98,10.0,North,-9999.0,-,N/A,,Clear,0,2012-11-26 15:15:00
8:35 AM,69.8,59.0,68,29.98,10.0,North,-9999.0,-,N/A,,Clear,0,2012-11-26 15:35:00
8:55 AM,71.6,59.0,64,29.98,10.0,North,-9999.0,-,N/A,,Clear,0,2012-11-26 15:55:00
9:15 AM,73.4,59.0,61,29.98,10.0,North,-9999.0,-,N/A,,Clear,0,2012-11-26 16:15:00
9:35 AM,75.2,57.2,53,29.98,10.0,North,-9999.0,-,N/A,,Clear,0,2012-11-26 16:35:00
9:55 AM,77.0,57.2,50,29.97,10.0,North,-9999.0,-,N/A,,Clear,0,2012-11-26 16:55:00
10:15 AM,78.8,57.2,47,29.96,10.0,North,-9999.0,-,N/A,,Clear,0,2012-11-26 17:15:00
10:35 AM,78.8,57.2,47,29.96,10.0,North,-9999.0,-,N/A,,Clear,0,2012-11-26 17:35:00
10:55 AM,80.6,53.6,39,29.95,10.0,North,-9999.0,-,N/A,,Clear,0,2012-11-26 17:55:00
11:15 AM,82.4,53.6,37,29.94,10.0,North,-9999.0,-,N/A,,Clear,0,2012-11-26 18:15:00
11:35 AM,82.4,51.8,35,29.93,10.0,North,-9999.0,-,N/A,,Clear,0,2012-11-26 18:35:00
11:55 AM,86.0,51.8,31,29.92,10.0,North,-9999.0,-,N/A,,Clear,0,2012-11-26 18:55:00
12:15 PM,86.0,50.0,29,29.92,10.0,North,-9999.0,-,N/A,,Clear,0,2012-11-26 19:15:00
12:35 PM,86.0,50.0,29,29.91,10.0,North,-9999.0,-,N/A,,Clear,0,2012-11-26 19:35:00
12:55 PM,84.2,50.0,30,29.90,10.0,North,-9999.0,-,N/A,,Clear,0,2012-11-26 19:55:00
1:15 PM,84.2,50.0,30,29.90,10.0,North,-9999.0,-,N/A,,Clear,0,2012-11-26 20:15:00
1:35 PM,84.2,50.0,30,29.90,10.0,North,-9999.0,-,N/A,,Clear,0,2012-11-26 20:35:00
1:55 PM,82.4,50.0,32,29.90,10.0,North,-9999.0,-,N/A,,Clear,0,2012-11-26 20:55:00
2:15 PM,82.4,50.0,32,29.91,10.0,North,-9999.0,-,N/A,,Scattered Clouds,0,2012-11-26 21:15:00
2:35 PM,80.6,55.4,42,29.91,10.0,North,-9999.0,-,N/A,,Scattered Clouds,0,2012-11-26 21:35:00
2:55 PM,80.6,55.4,42,29.92,10.0,North,-9999.0,-,N/A,,Scattered Clouds,0,2012-11-26 21:55:00
3:15 PM,80.6,53.6,39,29.92,10.0,Calm,Calm,-,N/A,,Scattered Clouds,0,2012-11-26 22:15:00
3:55 PM,77.0,51.8,41,29.95,10.0,West,11.5,17.3,N/A,Rain-Thunderstorm,Light Thunderstorms and Rain,260,2012-11-26 22:55:00
4:15 PM,64.4,53.6,68,29.98,5.0,WSW,15.0,25.3,0.08,Rain-Thunderstorm,Heavy Thunderstorms and Rain,250,2012-11-26 23:15:00
4:35 PM,64.4,53.6,68,29.98,10.0,SW,12.7,24.2,0.12,Rain-Thunderstorm,Light Thunderstorms and Rain,220,2012-11-26 23:35:00
4:55 PM,64.4,55.4,73,30.03,10.0,NNW,9.2,21.9,0.13,Rain,Light Rain,330,2012-11-26 23:55:00
5:15 PM,62.6,55.4,77,30.03,10.0,West,8.1,-,N/A,Rain-Thunderstorm,Light Thunderstorms and Rain,270,2012-11-27 00:15:00
5:35 PM,64.4,53.6,68,30.03,10.0,NW,6.9,-,N/A,Rain,Light Rain,310,2012-11-27 00:35:00
5:55 PM,64.4,53.6,68,30.03,10.0,North,6.9,-,N/A,,Overcast,350,2012-11-27 00:55:00
6:15 PM,62.6,55.4,77,30.07,10.0,Calm,Calm,-,N/A,,Overcast,0,2012-11-27 01:15:00
6:35 PM,64.4,48.2,56,30.07,10.0,North,6.9,-,N/A,,Light Drizzle,360,2012-11-27 01:35:00
6:55 PM,60.8,46.4,59,30.09,10.0,NNW,5.8,-,N/A,,Scattered Clouds,340,2012-11-27 01:55:00
7:15 PM,60.8,44.6,55,30.10,10.0,NNW,6.9,-,N/A,,Mostly Cloudy,340,2012-11-27 02:15:00
7:35 PM,60.8,42.8,52,30.12,10.0,NNW,6.9,-,N/A,,Scattered Clouds,340,2012-11-27 02:35:00
7:55 PM,60.8,42.8,52,30.13,10.0,NNW,5.8,-,N/A,,Scattered Clouds,330,2012-11-27 02:55:00
8:35 PM,59.0,41.0,51,30.17,10.0,North,9.2,-,N/A,,Clear,350,2012-11-27 03:35:00
8:55 PM,59.0,42.8,55,30.19,10.0,NNW,10.4,-,N/A,,Clear,340,2012-11-27 03:55:00
9:15 PM,59.0,42.8,55,30.20,10.0,NNW,9.2,-,N/A,,Clear,340,2012-11-27 04:15:00
9:35 PM,57.2,42.8,59,30.21,10.0,North,9.2,16.1,N/A,,Clear,360,2012-11-27 04:35:00
9:55 PM,57.2,42.8,59,30.22,10.0,North,9.2,-,N/A,,Clear,360,2012-11-27 04:55:00
10:15 PM,55.4,42.8,63,30.24,10.0,North,3.5,-,N/A,,Mostly Cloudy,10,2012-11-27 05:15:00
10:35 PM,55.4,42.8,63,30.25,10.0,North,4.6,-,N/A,,Mostly Cloudy,360,2012-11-27 05:35:00
10:55 PM,55.4,41.0,58,30.26,10.0,NNW,6.9,-,N/A,,Scattered Clouds,340,2012-11-27 05:55:00
11:15 PM,53.6,41.0,62,30.26,10.0,North,11.5,17.3,N/A,,Clear,350,2012-11-27 06:15:00
11:35 PM,53.6,37.4,54,30.26,10.0,North,11.5,18.4,N/A,,Clear,350,2012-11-27 06:35:00
11:55 PM,53.6,37.4,54,30.26,10.0,North,12.7,16.1,N/A,,Clear,360,2012-11-27 06:55:00